Flag for Burundi Weather past 2 weeks in Muyinga, Burundi

Now
64 °F

Passing clouds.


Feels Like: 64 °F
Forecast: 58 / 74 °F
Wind: No wind

Location: Kigali Airport

Current Time: May 30, 2015 at 1:09:13 AM

Latest Report: May 30, 2015 at 1:00 AM


Visibility: N/A

Pressure: 30.12 "Hg

Humidity: 100%

Dew point: 64 °F

Location of MuyingaLocation

Historic Weather in Muyinga — Graph

°F

Muyinga temperature yesterday

Maximum temperature yesterday: 79 °F (at 1:00 PM)
Minimum temperature yesterday: 64 °F (at 4:30 AM)
Average temperature yesterday: 71 °F

Past Weeks' High & Low Weather Summary

 TemperatureHumidityPressure
High82 °F (May 15, 3:00 PM)100% (May 15, 12:00 AM)30.27 "Hg (May 15, 12:00 AM)
Low61 °F (May 15, 4:30 AM)51% (May 17, 3:30 PM)30.04 "Hg (May 17, 4:30 PM)
Average71 °F82%30.16 "Hg
* Reported Midnight between May 14 and May 15 — May 30 12:30 AM, Muyinga, Weather by CustomWeather, © 2015

Note: Actual official high and low records may vary slightly from our data, if they occured in-between our weather recording intervals... More about our weather records

Advertising

Muyinga weather history for previous 24 hours

 ConditionsComfort  
Time TempWeatherWind HumidityBarometerVisibility
12:30 AM
Sat, May 30
66 °FPassing clouds.5 mph94%30.12 "HgN/A
12:00 AM66 °FPassing clouds.5 mph94%30.12 "HgN/A
11:30 PM
Fri, May 29
66 °FPassing clouds.6 mph94%30.15 "HgN/A
10:30 PM66 °FPassing clouds.5 mph94%30.15 "HgN/A
10:00 PM68 °FPassing clouds.No wind88%30.15 "HgN/A
9:30 PM68 °FPassing clouds.3 mph88%30.15 "HgN/A
9:00 PM68 °FPassing clouds.5 mph88%30.12 "HgN/A
8:30 PM68 °FPassing clouds.3 mph88%30.12 "HgN/A
8:00 PM70 °FPassing clouds.3 mph83%30.12 "HgN/A
7:30 PM70 °FPassing clouds.No wind83%30.09 "HgN/A
7:00 PM72 °FPassing clouds.5 mph78%30.09 "HgN/A
6:30 PM72 °FPassing clouds.5 mph78%30.07 "HgN/A
6:00 PM75 °FPassing clouds.No wind69%30.07 "HgN/A
5:30 PM75 °FScattered clouds.5 mph69%30.07 "HgN/A
5:00 PM77 °FScattered clouds.6 mph65%30.07 "HgN/A
4:30 PM77 °FScattered clouds.6 mph61%30.07 "HgN/A
4:00 PM79 °FScattered clouds.5 mph58%30.07 "HgN/A
3:30 PM79 °FPartly sunny.6 mph58%30.07 "HgN/A
3:00 PM79 °FPartly sunny.6 mph58%30.07 "HgN/A
2:30 PM75 °FPartly sunny.5 mph65%30.07 "HgN/A
2:00 PM75 °FPartly sunny.9 mph65%30.09 "HgN/A
1:30 PM79 °FPartly sunny.7 mph61%30.09 "HgN/A
1:00 PM79 °FPartly sunny.5 mph61%30.12 "HgN/A
12:30 PM77 °FPartly sunny.5 mph61%30.12 "HgN/A
12:00 PM77 °FPartly sunny.6 mph61%30.15 "HgN/A
11:30 AM77 °FScattered clouds.9 mph61%30.15 "HgN/A
11:00 AM77 °FScattered clouds.6 mph65%30.18 "HgN/A
10:30 AM75 °FScattered clouds.5 mph69%30.18 "HgN/A
10:00 AM75 °FScattered clouds.7 mph69%30.18 "HgN/A
9:30 AM75 °FScattered clouds.No wind69%30.18 "HgN/A
9:00 AM73 °FScattered clouds.No wind78%30.18 "HgN/A
8:30 AM70 °FScattered clouds.No wind88%30.18 "Hg5 mi
8:00 AM68 °FScattered clouds.No wind94%30.15 "Hg5 mi
7:30 AM66 °FScattered clouds.No wind100%30.15 "Hg5 mi
7:00 AM64 °FScattered clouds.3 mph100%30.12 "HgN/A
6:30 AM64 °FScattered clouds.3 mph100%30.12 "HgN/A
6:00 AM64 °FScattered clouds.3 mph100%30.12 "HgN/A
5:30 AM64 °FPassing clouds.3 mph100%30.09 "HgN/A
5:00 AM64 °FPassing clouds.3 mph100%30.09 "HgN/A
4:30 AM64 °FPassing clouds.No wind100%30.09 "HgN/A
4:00 AM66 °FPassing clouds.No wind94%30.09 "HgN/A
3:30 AM66 °FPartly cloudy.No wind100%30.09 "HgN/A
3:00 AM66 °FPartly cloudy.No wind100%30.09 "HgN/A
2:30 AM66 °FPartly cloudy.No wind100%30.09 "HgN/A
2:00 AM68 °FPartly cloudy.No wind94%30.09 "HgN/A
1:30 AM68 °FPartly cloudy.No wind88%30.09 "HgN/A
1:00 AM68 °FPassing clouds.No wind88%30.12 "HgN/A
Weather by CustomWeather, © 2015

See weather overviewHow to use our weather pages